Location: Aldenham
(51.6667°N, 0.3500°W)
Time: 18:55:20
(UTC+00:00)

Altair - Pass Details

Date: 24 February 2026
Orbit: 1502 x 1682 km, 47.2° (Epoch: 10 March)

Event Time Altitude Azimuth Distance (km) Brightness Sun altitude
Rises 02:29:36 0° 213° (SSW) 4,627 - -39.7°
Reaches altitude 10° 02:32:55 10° 205° (SSW) 3,646 - -39.3°
Maximum altitude 02:40:55 35° 143° (SE) 2,238 - -38.4°
Exits shadow 02:41:40 35° 134° (SE) 2,257 8.3 -38.3°
Drops below altitude 10° 02:49:01 10° 82° (E) 3,706 10.1 -37.4°
Sets 02:52:24 0° 74° (ENE) 4,713 10.9 -37.0°
